Regional Weather Roundup
Issued by NWS

Home | Current Version | Previous Version | Graphics & Text | Print | Product List | Glossary On
Versions: 1 2 3 4 5 6 7 8 9 10 11 12 13 14 15 16 17 18 19 20 21 22 23 24 25 26 27 28 29 30 31 32 33 34 35 36 37 38 39 40 41 42 43 44 45 46 47 48 49 50
000
ASUS43 KBIS 240610
RWRND

NORTH DAKOTA REGIONAL WEATHER ROUNDUP
NATIONAL WEATHER SERVICE BISMARCK ND
1200 AM CST TUE JAN 24 2017

NOTE: "FAIR" INDICATES FEW OR NO CLOUDS BELOW 12,000 FEET WITH NO
SIGNIFICANT WEATHER AND/OR OBSTRUCTIONS TO VISIBILITY.


NDZ001>003-009>011-017-240700-
NORTHWEST NORTH DAKOTA

CITY           SKY/WX    TMP DP  RH WIND       PRES   REMARKS
WILLISTON      CLOUDY    22  19  89 W8        29.84S WCI  12
6HR MIN TEMP:  20; 6HR MAX TEMP:  22; 6HR PCP: TRACE;

MINOT          CLOUDY    24  18  77 W12       29.81R WCI  13
$$

NDZ018>021-031>035-040>046-240700-
SOUTHWEST NORTH DAKOTA

CITY           SKY/WX    TMP DP  RH WIND       PRES   REMARKS
BISMARCK       CLOUDY    29  25  85 W3        29.84R
6HR MIN TEMP:  29; 6HR MAX TEMP:  31;

DICKINSON      CLOUDY    23  21  92 W6        29.77S FOG     WCI  16
GARRISON         N/A     21  17  84 W9        29.82R WCI  11
6HR MIN TEMP:  19; 6HR MAX TEMP:  24;

HETTINGER ARPT FOG       21  19  92 N3        29.79S VSB 3/4
$$

NDZ004>008-012>016-024-026-027-054-240700-
NORTHEAST NORTH DAKOTA

CITY           SKY/WX    TMP DP  RH WIND       PRES   REMARKS
GRAND FORKS    CLOUDY    26  19  74 W17G26    29.84R WCI  13
GRND FRKS AFB  CLOUDY    25  19  79 W15       29.84R WCI  12
DEVILS LAKE    CLOUDY    22  19  89 W14       29.81R WCI   9
$$

NDZ022-023-025-028>030-036>039-047>053-240700-
SOUTHEAST NORTH DAKOTA

CITY           SKY/WX    TMP DP  RH WIND       PRES   REMARKS
FARGO          CLOUDY    33  25  72 W7        29.86R
6HR MIN TEMP:  33; 6HR MAX TEMP:  34;

JAMESTOWN      CLOUDY    28  24  85 W6        29.82R
$$




USA.gov is the U.S. government's official web portal to all federal, state and local government web resources and services.